Altus AFB, OK

11:34 AM CDT on August 23, 2017 (GMT -0500)
Altus Air Force Base

Weather History for KLTS - March, 2013

Change the Weather History Date:

Monday, March 4, 2013

  Actual Average Record
Temperature  
Mean Temperature 58 °F -  
Max Temperature 73 °F 58 °F 84 °F (2009)
Min Temperature 44 °F 32 °F 10 °F (2002)
Degree Days  
Heating Degree Days 6    
Growing Degree Days 8 (Base 50)    
Moisture  
Dew Point 36 °F    
Average Humidity 47    
Maximum Humidity 69    
Minimum Humidity 31    
Precipitation  
Precipitation 0.01 in - - ()
Sea Level Pressure  
Sea Level Pressure 29.71 in    
Wind  
Wind Speed 15 mph (North)    
Max Wind Speed 41 mph    
Max Gust Speed 48 mph    
Visibility 10 miles    
Events      
Averages and records for this station are not official NWS values.
T = Trace of Precipitation, MM = Missing Value Source: NWS Daily Summary

Daily Weather History Graph

Daily Weather History Graph

Search for Another Location

Airport or City:

Trip Planner

Search our weather history database for the weather conditions in past years. The results will help you decide how hot, cold, wet, or windy it might be!

Date:

Astronomy

Mar. 04, 2013 Rise Set
Actual Time 7:02 AM CST 6:35 PM CST
Civil Twilight 6:36 AM CST 7:01 PM CST
Nautical Twilight 6:07 AM CST 7:30 PM CST
Astronomical Twilight 5:38 AM CST 7:59 PM CST
Moon 1:03 AM CST (3/4) 11:29 AM CST (3/4)
Length of Visible Light 12h 24m
Length of Day
11h 33m
Waning Gibbous, 52% of the Moon is Illuminated
Mar 4
Waning Gibbous
Mar 4
Last Quarter
Mar 11
New
Mar 19
First Quarter
Mar 27
Full

Hourly Weather History & Observations

Time (CST) Temp. Windchill Dew Point Humidity Pressure Visibility Wind Dir Wind Speed Gust Speed Precip Events Conditions
12:55 AM 56.8 °F - 31.6 °F 38% 29.53 in 10.0 mi SW 11.5 mph - N/A   Clear
1:55 AM 57.0 °F - 30.2 °F 36% 29.53 in 10.0 mi SW 11.5 mph - N/A   Clear
2:55 AM 55.8 °F - 30.4 °F 38% 29.51 in 10.0 mi SW 11.5 mph - N/A   Clear
3:55 AM 54.5 °F - 30.9 °F 41% 29.50 in 10.0 mi SW 10.4 mph - N/A   Clear
4:55 AM 58.5 °F - 28.8 °F 32% 29.50 in 10.0 mi WSW 11.5 mph - N/A   Partly Cloudy
5:55 AM 58.1 °F - 29.5 °F 34% 29.52 in 10.0 mi West 9.2 mph - N/A   Clear
6:55 AM 52.0 °F - 32.5 °F 48% 29.57 in 10.0 mi NE 4.6 mph - N/A   Clear
7:55 AM 54.5 °F - 34.0 °F 46% 29.60 in 10.0 mi WNW 6.9 mph - N/A   Clear
8:55 AM 58.8 °F - 35.4 °F 42% 29.63 in 10.0 mi WNW 6.9 mph - N/A   Clear
9:55 AM 62.6 °F - 41.0 °F 45% 29.65 in 10.0 mi WNW 9.2 mph - N/A   Clear
10:55 AM 68.0 °F - 41.0 °F 37% 29.64 in 10.0 mi NW 9.2 mph - N/A   Clear
11:55 AM 69.8 °F - 42.8 °F 38% 29.63 in 10.0 mi NW 8.1 mph - N/A   Clear
12:55 PM 73.4 °F - 41.0 °F 31% 29.61 in 10.0 mi NNE 6.9 mph 17.3 mph N/A   Clear
1:58 PM 72.7 °F - 40.1 °F 31% 29.60 in 10.0 mi NNE 12.7 mph 19.6 mph N/A   Clear
2:58 PM 70.7 °F - 40.6 °F 34% 29.59 in 10.0 mi NE 17.3 mph 25.3 mph N/A   Clear
3:14 PM 69.8 °F - 41.0 °F 35% 29.60 in 10.0 mi NNE 17.3 mph - N/A   Clear
3:58 PM 70.0 °F - 41.0 °F 35% 29.61 in 10.0 mi NE 15.0 mph - N/A   Clear
4:58 PM 68.5 °F - 41.4 °F 37% 29.62 in 10.0 mi NE 16.1 mph - N/A   Clear
5:58 PM 63.5 °F - 43.2 °F 47% 29.64 in 10.0 mi NNE 15.0 mph - N/A   Clear
6:58 PM 57.4 °F - 43.0 °F 59% 29.69 in 10.0 mi NNE 15.0 mph - N/A   Clear
7:58 PM 53.6 °F - 42.3 °F 65% 29.81 in 10.0 mi North 24.2 mph 32.2 mph N/A   Partly Cloudy
8:58 PM 47.3 °F - 37.8 °F 69% 29.88 in 10.0 mi NNE 35.7 mph 44.9 mph N/A   Clear
9:58 PM 45.9 °F 36.1 °F 35.6 °F 67% 29.95 in 10.0 mi North 32.2 mph 39.1 mph N/A   Clear
10:58 PM 46.2 °F 36.5 °F 32.9 °F 60% 30.01 in 10.0 mi North 33.4 mph 48.3 mph 0.01 in   Mostly Cloudy
11:08 PM 46.4 °F 36.5 °F 32.0 °F 57% 30.03 in 10.0 mi North 34.5 mph 43.7 mph N/A   Light Drizzle
11:12 PM 44.6 °F 33.9 °F 32.0 °F 61% 30.03 in 10.0 mi North 35.7 mph 46.0 mph N/A   Partly Cloudy
11:16 PM 44.6 °F 33.2 °F 32.0 °F 61% 30.01 in 10.0 mi North 41.4 mph 48.3 mph N/A   Light Drizzle
11:25 PM 44.6 °F 34.2 °F 32.0 °F 61% 30.03 in 10.0 mi North 33.4 mph 48.3 mph N/A   Clear
11:58 PM 44.2 °F 33.6 °F 32.9 °F 64% 30.07 in 10.0 mi North 34.5 mph 46.0 mph N/A   Mostly Cloudy